Temp
14 14 14 14 14 15 15 15 15 15 15 15 15 15 16 16 16 16 16 16 15 15 15 16 16 16 15 15 14 15 15 15 15 15 16 16 16 16 17 17 17 17
14 14 14 14 14 15 15 15 15 15 15 15 16 16 16 16 16 16 16 16 15 16 15 15 16 16 16 16 15 15 15 15 15 15 15 15 15 16 16 16 16 16
14 14 14 15 14 15 15 15 15 15 15 15 16 16 16 16 16 16 16 16 15 16 15 15 16 16 15 15 15 16 16 16 16 15 15 15 15 16 16 16 16 16
14 14 14 14 14 14 15 15 15 15 15 15 15 16 15 16 16 16 16 15 15 15 15 15 15 15 15 15 15 15 15 15 15 15 15 15 15 16 16 16 15 16
14 14 15 14 14 15 15 15 15 15 15 15 15 16 16 16 16 15 15 15 15 15 15 15 15 15 15 15 15 15 15 15 15 15 15 15 16 15 15 15 15 15
14 14 14 15 15 15 15 15 15 15 15 15 15 15 15 15 15 15 15 15 15 15 15 15 15 15 15 15 15 15 15 15 15 15 15 15 15 15 15 15 15 15
14 14 14 14 14 14 14 15 15 15 15 15 15 15 15 15 15 15 15 15 15 15 15 15 15 15 14 14 14 15 15 15 15 15 15 15 15 15 15 15 15 15
13 14 14 14 14 14 14 15 15 15 15 14 14 14 14 14 14 14 14 14 14 14 13 13 14 14 14 14 14 14 14 15 15 15 15 15 15 15 15 15 15 15
13 13 14 14 14 14 14 14 15 15 14 14 14 14 14 13 13 13 13 13 13 12 12 12 13 13 13 13 13 13 13 14 15 15 15 15 15 15 15 15 15 15
13 13 13 13 14 14 14 14 15 15 14 14 14 14 13 13 12 12 12 12 12 11 11 11 12 12 13 13 13 13 13 13 14 15 15 15 15 15 15 15 14 14
13 13 13 13 14 14 14 14 15 15 14 14 14 14 13 13 12 12 11 11 10 10 10 11 11 12 12 13 13 13 13 13 13 14 14 15 15 15 15 15 14 14
13 13 13 13 14 14 14 14 14 14 14 14 14 14 13 13 12 12 11 11 10 10 10 10 11 11 12 12 13 13 13 13 13 13 14 15 15 15 15 15 14 13
13 13 13 13 14 14 14 14 14 14 14 14 14 14 14 13 13 12 11 11 11 11 10 10 10 11 11 12 12 12 13 13 13 13 14 15 15 15 15 14 14 13
14 13 14 14 14 14 14 14 14 14 14 14 13 13 13 13 13 12 12 11 11 11 10 9 9 10 10 11 12 12 12 12 13 13 14 14 14 14 14 14 13 12
14 14 14 14 14 14 14 14 14 14 14 13 13 13 13 13 13 13 13 12 10 10 10 9 9 9 9 10 11 11 12 12 12 13 13 14 13 13 13 13 13 12
14 14 14 14 14 14 14 14 14 14 14 13 13 13 13 12 12 13 13 12 10 9 9 9 8 8 9 9 10 11 11 12 12 12 13 13 12 12 12 12 12 11
14 14 14 14 14 14 14 14 13 13 13 13 13 13 12 12 12 12 12 11 10 9 9 8 8 8 9 10 10 10 11 11 12 12 12 12 11 12 12 11 11 11
14 14 14 14 14 14 13 13 13 13 13 13 13 12 12 12 11 11 11 11 10 9 8 8 7 8 9 10 10 10 10 11 11 11 11 11 11 11 11 10 10 10
14 14 14 13 13 13 13 13 13 12 12 13 13 12 12 12 11 10 10 10 9 9 8 8 7 8 9 10 10 10 10 11 11 11 11 10 10 11 11 9 9 9
14 14 13 13 13 13 13 13 12 12 12 12 12 12 12 11 11 10 9 9 9 9 8 8 7 8 9 9 10 10 10 10 10 10 10 10 10 11 10 9 8 8
14 13 13 13 13 13 12 12 12 12 12 12 12 12 12 11 11 10 9 8 8 9 8 8 7 7 8 9 9 10 10 9 9 9 9 9 10 10 9 9 8 7
13 13 13 13 13 12 12 12 12 12 11 12 12 12 11 11 11 10 9 8 8 8 8 8 7 7 8 8 8 9 9 9 8 8 8 9 10 10 9 8 8 7
13 13 13 13 12 12 12 12 12 11 11 12 12 12 11 11 11 10 9 8 8 8 8 8 7 7 7 7 8 8 9 8 7 7 7 8 9 9 9 8 7 7
13 13 13 12 12 12 12 12 11 11 11 12 12 12 12 11 11 10 9 9 8 8 8 8 7 7 7 7 7 8 8 7 6 7 7 7 8 9 9 9 8 7
12 12 12 12 12 11 11 11 11 11 11 11 12 12 11 11 11 11 10 9 9 9 8 8 7 7 7 7 7 7 7 7 6 6 7 7 7 8 9 9 8 7
12 11 11 11 11 11 11 11 11 11 11 11 11 11 11 11 11 11 11 10 10 10 9 8 8 7 7 7 7 7 7 7 5 5 5 5 5 7 8 8 8 7
Height
820 820 819 818 816 815 814 813 811 810 808 807 806 805 804 803 802 801 800 800 801 802 801 799 798 797 797 797 798 798 797 797 797 796 796 796 796 795 795 795 795 796
819 819 818 817 815 814 813 812 811 809 809 808 807 805 804 803 802 801 800 800 800 800 801 800 798 797 797 797 798 798 797 796 795 796 796 795 795 795 795 794 795 795
818 818 817 816 815 814 813 812 811 810 810 808 807 805 804 803 802 801 800 800 799 799 800 800 798 797 797 797 797 797 795 794 794 795 796 795 795 794 793 793 793 793
817 817 816 815 815 814 813 812 811 811 810 808 807 806 805 804 803 802 802 801 801 801 801 800 799 798 797 797 796 796 795 794 793 794 794 793 792 792 791 791 791 791
817 816 816 815 814 814 813 812 811 811 810 809 807 806 805 805 804 803 803 802 802 802 802 801 800 799 798 797 796 795 794 794 793 793 791 790 790 789 789 789 789 790
817 816 816 815 815 814 813 812 812 811 810 809 808 807 806 806 805 804 804 803 802 802 803 802 801 799 799 798 797 796 795 794 793 792 791 789 789 788 788 788 788 788
817 816 816 815 815 814 814 813 812 811 811 810 808 807 807 807 806 805 805 805 803 803 803 802 801 800 799 798 798 796 795 794 792 791 791 790 789 788 787 787 787 787
818 817 816 816 815 815 814 813 812 812 811 810 809 808 808 808 808 807 807 806 805 804 804 803 802 800 799 799 797 796 795 794 793 792 791 791 790 789 788 787 787 786
818 818 817 817 816 815 814 814 813 812 811 811 810 810 809 809 809 808 808 807 807 806 804 803 802 801 800 799 797 796 795 794 794 793 792 792 791 790 789 788 787 787
819 818 818 817 816 816 815 814 814 813 813 812 811 811 810 810 810 809 809 808 807 806 805 804 802 801 800 800 798 797 796 795 794 793 793 792 791 791 790 789 788 787
820 819 818 817 817 817 816 815 815 814 814 813 812 812 811 811 811 810 809 808 807 807 806 805 804 802 802 801 799 798 797 796 795 794 794 793 792 791 791 790 789 789
820 820 819 818 818 817 817 816 815 815 815 814 813 813 812 812 811 811 810 810 809 809 808 806 805 804 803 802 801 799 798 797 796 795 794 794 793 793 792 791 791 790
820 821 820 819 819 818 818 817 816 816 816 815 815 814 813 813 812 812 811 811 810 810 809 808 807 805 804 803 802 800 799 797 796 795 795 795 795 794 793 793 792 792
820 821 820 820 820 819 819 818 817 817 817 816 816 815 815 814 813 813 812 811 811 811 811 810 808 807 805 804 803 802 800 799 797 797 796 796 796 795 795 795 793 793
820 820 820 820 820 819 819 819 818 818 817 817 817 816 816 815 815 814 814 813 812 812 812 812 810 809 807 805 804 802 801 800 799 798 798 798 798 797 797 796 795 794
821 821 820 820 820 820 820 819 819 819 818 818 817 817 817 817 816 816 816 815 814 814 814 813 812 810 809 807 806 804 803 802 800 800 800 800 799 798 798 798 797 797
821 821 821 821 820 820 820 820 819 819 819 819 818 818 818 818 818 818 817 817 816 816 816 815 813 812 810 808 807 805 804 803 802 801 802 801 801 800 800 799 798 798
822 821 821 821 821 821 821 821 820 820 820 820 820 820 820 819 820 819 819 819 818 818 818 817 815 813 811 809 808 807 806 804 803 804 803 803 803 802 801 801 800 799
822 822 822 822 822 822 822 821 821 821 821 821 821 821 821 821 821 821 821 821 820 819 819 818 816 815 812 810 809 808 807 806 805 805 805 805 804 804 803 802 802 801
823 823 823 823 823 823 823 822 823 822 822 822 822 822 822 822 822 822 822 822 822 821 821 819 818 816 814 812 811 809 808 807 807 807 806 806 805 805 804 804 803 803
823 823 824 824 824 824 824 824 824 824 824 824 823 823 823 823 824 824 823 823 823 823 822 821 820 818 816 814 812 811 809 808 808 808 807 807 806 806 805 805 804 804
824 824 824 824 824 825 825 825 825 825 825 825 824 825 825 824 825 825 825 825 824 824 823 822 821 820 818 816 814 812 811 810 809 809 808 808 807 807 806 805 805 804
825 825 825 825 825 826 826 826 826 826 826 825 825 825 825 825 826 826 826 826 826 825 825 824 823 821 820 817 816 814 812 811 811 810 809 808 808 808 807 805 805 805
825 826 826 826 826 826 827 827 827 827 827 826 826 826 826 826 826 827 827 827 826 826 826 825 824 823 821 819 817 816 814 813 813 812 811 809 809 809 808 807 806 806
826 826 826 827 827 827 828 827 827 827 827 827 827 826 826 827 827 827 827 827 827 827 826 826 825 824 823 821 819 818 816 814 814 813 812 811 810 810 810 809 808 807
826 827 827 827 828 828 828 828 828 828 828 827 827 827 827 827 827 827 827 826 826 826 826 826 825 825 824 823 821 819 818 816 815 814 813 812 812 811 811 810 809 808
Wind_Speed
11 11 13 15 14 14 14 15 16 16 16 16 16 16 17 17 18 17 15 13 13 15 14 12 12 14 15 16 14 15 18 18 19 19 19 20 20 20 20 21 21 21
13 13 14 15 16 16 16 15 15 15 15 16 17 17 17 17 17 17 16 14 12 12 14 12 11 12 12 12 10 11 13 15 18 18 18 19 20 19 20 20 20 20
13 15 15 15 16 17 17 16 15 15 15 16 17 16 16 17 16 17 17 16 13 11 13 11 9 12 11 8 8 9 10 10 13 14 15 17 18 19 21 20 21 21
13 15 15 15 16 17 18 17 16 16 16 16 17 15 15 16 15 16 16 15 13 12 13 13 12 13 12 10 11 12 11 11 10 11 12 13 14 17 19 20 21 22
14 14 15 15 16 17 17 16 16 17 16 15 16 15 14 13 13 14 15 14 15 15 14 15 14 15 15 13 14 14 13 12 11 11 12 13 14 15 16 17 18 19
15 15 14 14 15 16 16 16 16 16 16 15 15 14 13 12 14 15 15 15 16 16 15 16 16 17 16 15 15 15 14 14 13 12 12 13 14 14 13 13 13 14
15 15 15 15 16 16 16 16 16 16 17 16 15 15 14 16 18 18 17 18 18 17 16 16 16 17 17 16 16 16 15 15 15 14 14 14 14 14 12 11 10 11
14 15 15 15 16 17 16 17 17 17 17 17 17 18 18 19 19 18 18 19 19 18 18 17 17 16 16 16 17 17 16 16 16 16 15 14 14 14 14 13 13 12
13 14 13 14 15 16 16 16 17 17 17 17 17 18 18 18 19 18 18 18 19 19 20 21 19 18 17 17 17 18 17 16 16 16 16 14 12 13 14 15 15 15
11 12 13 14 15 15 16 16 16 17 17 17 17 17 18 17 17 18 18 19 20 20 22 24 22 20 19 19 19 19 19 17 15 16 17 16 12 11 13 15 16 17
10 11 12 13 14 14 15 15 15 16 16 17 17 16 16 17 17 18 19 21 23 23 24 24 23 21 21 21 20 20 20 18 17 17 19 19 16 13 12 13 14 16
10 10 10 11 12 12 13 13 15 15 15 16 16 15 15 15 16 17 18 20 24 26 26 25 24 24 22 22 21 20 20 18 17 19 19 19 19 17 15 14 13 15
8 8 8 9 10 11 12 12 13 14 14 15 15 14 15 14 13 14 15 17 20 25 29 27 26 25 23 23 22 20 20 18 17 19 19 18 19 19 20 18 15 16
7 6 7 8 8 9 10 11 12 13 13 14 15 15 15 15 14 12 13 15 16 22 28 29 28 27 25 23 22 21 20 18 18 19 18 18 19 19 19 18 15 16
6 6 6 7 8 9 10 10 11 12 12 13 14 15 15 15 15 13 13 13 14 19 26 29 30 29 26 23 21 21 19 18 19 18 17 17 18 18 18 17 15 15
5 6 6 7 8 9 10 11 11 11 12 13 13 14 14 15 15 16 15 14 14 20 26 29 30 31 27 21 18 19 18 18 18 18 17 17 18 17 17 17 17 14
5 5 7 7 8 9 10 11 11 11 12 12 13 13 13 14 14 15 16 15 15 20 25 27 30 31 27 21 18 17 18 18 18 17 16 16 17 17 16 18 19 17
5 6 7 7 8 9 10 10 11 11 11 11 12 12 12 13 13 14 16 14 14 19 24 26 29 31 29 24 19 17 19 19 18 16 16 16 17 16 15 18 20 19
6 7 7 7 8 8 9 10 10 10 10 11 11 11 11 12 13 14 15 14 13 17 22 26 29 30 30 27 21 18 20 21 19 16 16 16 16 15 15 19 20 20
7 7 7 8 8 8 9 10 10 10 10 10 11 11 11 12 13 13 14 14 13 13 19 26 29 30 29 28 24 20 21 21 19 17 15 16 16 15 16 19 20 20
7 7 7 8 8 8 9 9 10 10 10 10 10 10 10 10 11 13 13 14 13 11 14 22 28 30 29 28 26 23 21 21 20 18 16 16 16 15 16 19 21 22
7 7 7 7 8 8 9 9 9 9 9 9 8 9 9 9 10 11 12 13 13 12 12 17 23 29 30 28 26 24 22 22 21 18 17 17 15 14 16 20 22 24
6 7 6 7 8 8 9 8 8 8 8 7 7 8 8 8 9 10 10 11 12 12 12 14 18 25 29 29 27 24 22 21 21 20 18 17 16 13 14 18 20 23
6 7 7 8 8 8 8 8 8 8 8 8 8 7 7 7 8 8 8 9 10 10 11 12 16 21 27 30 28 25 23 20 20 21 19 18 19 15 13 15 17 20
7 7 7 7 8 8 7 7 7 7 7 8 8 9 8 7 6 6 7 7 7 7 8 10 13 17 23 27 25 23 22 20 19 22 21 19 20 19 15 15 16 19
7 7 7 7 7 6 6 6 6 6 6 6 7 8 8 7 6 5 5 6 5 5 6 7 9 12 17 22 23 21 22 21 20 22 21 18 18 18 16 16 17 17
Wind_Direction
346 349 350 351 352 349 351 356 354 351 352 353 350 349 350 350 354 354 352 351 339 333 339 336 338 338 322 316 311 287 280 276 267 265 262 259 260 261 263 261 257 254
348 353 356 356 358 356 353 355 358 356 354 355 356 356 357 360 5 2 357 3 4 1 359 349 349 358 343 331 324 302 294 282 270 277 284 276 269 267 267 267 266 264
354 355 357 356 358 358 354 352 357 360 357 358 359 359 0 3 9 10 7 15 25 24 20 14 2 1 357 350 345 336 328 304 282 287 292 281 271 268 267 267 270 271
357 357 357 357 357 357 357 357 358 1 2 3 1 2 7 8 10 12 10 19 31 28 28 33 23 14 15 12 8 6 357 337 317 310 305 294 286 281 278 274 271 271
359 357 356 357 357 356 359 0 0 4 6 4 4 10 16 13 13 15 13 22 36 33 33 38 33 28 29 24 17 17 12 4 352 339 331 324 316 307 297 289 281 277
359 358 357 357 357 357 2 5 4 7 8 7 11 15 14 17 26 29 26 33 43 40 36 35 32 29 29 24 20 17 12 12 10 2 355 349 341 332 317 301 295 295
1 359 1 1 1 3 5 8 10 11 13 18 24 27 26 33 43 44 39 38 41 40 34 30 28 25 21 17 15 14 12 12 11 9 11 9 6 3 351 337 327 324
5 4 6 5 5 8 10 12 14 15 20 28 36 41 42 44 46 45 42 39 37 36 32 29 28 25 20 16 12 11 10 8 4 5 10 12 16 19 14 10 5 356
10 7 9 8 7 11 14 16 17 19 27 35 40 44 45 44 43 42 42 40 37 34 29 28 28 25 22 19 17 16 12 6 0 359 1 3 11 20 19 23 27 24
11 8 8 9 10 13 16 17 20 23 30 36 41 46 45 43 44 44 43 41 39 35 29 29 29 25 24 24 22 21 17 13 10 3 359 359 4 14 21 28 36 38
16 15 10 9 10 14 15 17 21 24 29 34 39 46 47 46 45 44 44 44 42 39 33 31 30 28 27 25 23 22 19 17 20 14 5 3 7 13 18 24 34 42
25 18 11 14 14 15 17 18 22 24 27 32 35 42 46 46 47 46 44 43 42 40 35 32 31 29 27 25 23 23 21 20 25 20 8 7 15 20 21 24 37 50
38 17 13 23 21 20 22 23 26 27 28 31 34 38 41 43 49 51 49 44 38 36 33 30 30 28 26 26 25 23 23 24 30 24 10 10 20 22 23 29 45 53
51 28 22 30 25 27 29 28 33 32 32 37 38 39 38 38 43 50 55 50 37 29 27 25 27 26 22 22 23 24 25 28 33 26 12 13 22 22 24 31 43 49
38 27 30 37 29 31 30 32 38 36 36 40 40 42 41 36 36 38 46 53 42 27 22 21 23 23 19 18 20 23 26 30 33 27 16 18 22 22 25 31 37 40
31 22 28 34 32 34 31 33 38 36 39 42 39 41 41 37 35 31 34 49 48 33 25 22 21 20 19 19 22 24 26 31 33 26 21 23 22 22 25 26 27 29
34 33 35 31 32 38 34 32 36 36 38 41 39 40 40 38 37 32 33 46 48 35 28 25 23 21 20 22 28 31 31 32 33 26 23 26 23 24 28 23 21 24
38 46 48 38 34 40 39 34 36 37 38 39 38 38 39 40 41 38 36 42 46 37 31 29 26 24 23 25 30 37 36 34 33 28 26 27 25 25 31 29 25 23
50 53 52 46 40 42 43 40 40 39 36 37 38 37 40 41 42 42 37 38 46 40 31 30 28 25 26 28 31 39 40 36 32 28 29 28 25 28 36 36 30 19
60 57 52 53 49 45 46 44 42 41 36 37 38 36 38 41 41 43 40 37 44 41 30 29 28 24 24 28 31 37 41 37 29 27 32 29 25 33 41 37 30 21
63 60 54 55 55 51 51 46 42 41 36 38 40 35 37 44 45 45 43 38 42 42 30 26 25 22 21 24 26 31 38 36 25 23 31 27 25 38 43 36 30 24
64 65 57 55 58 53 50 45 41 41 36 34 43 40 37 49 54 51 46 40 42 44 31 21 20 18 16 19 22 24 32 33 23 21 26 21 23 38 39 33 32 25
66 71 62 58 60 53 49 44 39 41 35 28 41 46 40 51 63 60 53 46 44 46 33 14 12 14 13 15 19 22 29 32 23 19 23 17 17 31 38 34 32 24
66 70 67 64 62 53 48 45 40 39 33 26 36 47 45 54 66 67 63 54 46 48 44 22 10 11 12 12 15 19 27 33 26 21 25 22 15 18 31 33 22 11
72 69 66 66 64 57 48 45 42 39 34 32 38 41 41 46 56 70 77 70 55 55 57 33 12 11 13 12 12 17 24 32 30 24 25 25 15 8 14 23 14 1
84 75 68 67 67 62 54 48 45 38 33 40 47 45 42 34 27 44 68 70 64 65 63 38 18 17 17 14 14 20 25 30 31 26 21 20 13 4 4 12 10 360